• En España
  • Lista de países
  • Para 7 días
  • Temperatura del agua
  • Mapa Satelital
  • El tiempo en el mapa
  • Informadores
  • user-avatar
    Iniciar sesión

    Tiempo cada hora Rebordosa

    Hoy, 24 Junio, Domingo

    Tiempo Temperatura Precipitaciones Viento Presión Humedad
    00:00 +23°C° 0 mm 1 mps 732 mmHg 71%
    01:00 +23°C° 0 mm 1 mps 732 mmHg 70%
    02:00 +22°C° 0 mm 1 mps 731 mmHg 69%
    03:00 +22°C° 0 mm 1 mps 732 mmHg 69%
    04:00 +22°C° 0 mm 1 mps 732 mmHg 68%
    05:00 +22°C° 0 mm 1 mps 732 mmHg 68%
    06:00 +24°C° 0 mm 1 mps 732 mmHg 61%
    07:00 +27°C° 0 mm 1 mps 732 mmHg 54%
    08:00 +29°C° 0 mm 1 mps 732 mmHg 47%
    09:00 +30°C° 0 mm 1 mps 732 mmHg 44%
    10:00 +32°C° 0 mm 2 mps 733 mmHg 42%
    11:00 +34°C° 0 mm 2 mps 733 mmHg 39%
    12:00 +34°C° 0 mm 2 mps 732 mmHg 40%
    13:00 +34°C° 0 mm 3 mps 732 mmHg 41%
    14:00 +34°C° 0 mm 3 mps 732 mmHg 42%
    15:00 +31°C° 0,2 mm 3 mps 732 mmHg 47%
    16:00 +30°C° 0,2 mm 3 mps 731 mmHg 52%
    17:00 +29°C° 0,2 mm 3 mps 731 mmHg 57%
    18:00 +27°C° 0,6 mm 2 mps 732 mmHg 64%
    19:00 +25°C° 0,6 mm 2 mps 732 mmHg 71%
    20:00 +23°C° 0,6 mm 1 mps 732 mmHg 79%
    21:00 +22°C° 0,5 mm 1 mps 732 mmHg 80%
    22:00 +22°C° 0,5 mm 1 mps 732 mmHg 82%
    23:00 +21°C° 0,5 mm 1 mps 732 mmHg 84%

    Mañana, 25 Junio, Lunes

    Tiempo Temperatura Precipitaciones Viento Presión Humedad
    00:00 +21°C° 0,1 mm 1 mps 732 mmHg 84%
    01:00 +21°C° 0,1 mm 1 mps 732 mmHg 85%
    02:00 +21°C° 0,1 mm 1 mps 731 mmHg 86%
    03:00 +21°C° 0,2 mm 1 mps 732 mmHg 85%
    04:00 +21°C° 0,2 mm 1 mps 732 mmHg 85%
    05:00 +19°C° 0,2 mm 0 mps 732 mmHg 85%
    06:00 +23°C° 0 mm 1 mps 732 mmHg 78%
    07:00 +25°C° 0 mm 1 mps 733 mmHg 70%
    08:00 +26°C° 0 mm 2 mps 733 mmHg 63%
    09:00 +28°C° 0 mm 2 mps 733 mmHg 60%
    10:00 +29°C° 0 mm 2 mps 733 mmHg 56%
    11:00 +30°C° 0 mm 2 mps 733 mmHg 53%
    12:00 +29°C° 0 mm 3 mps 733 mmHg 53%
    13:00 +29°C° 0 mm 3 mps 733 mmHg 54%
    14:00 +29°C° 0 mm 4 mps 733 mmHg 54%
    15:00 +28°C° 0 mm 3 mps 733 mmHg 58%
    16:00 +27°C° 0 mm 3 mps 733 mmHg 62%
    17:00 +25°C° 0 mm 3 mps 733 mmHg 66%
    18:00 +24°C° 0,1 mm 3 mps 733 mmHg 73%
    19:00 +21°C° 0,1 mm 2 mps 733 mmHg 79%
    20:00 +19°C° 0,1 mm 2 mps 734 mmHg 86%
    21:00 +20°C° 0 mm 1 mps 734 mmHg 87%
    22:00 +19°C° 0 mm 1 mps 734 mmHg 89%
    23:00 +19°C° 0 mm 1 mps 734 mmHg 91%

    Pasado mañana, 26 Junio, Martes

    Tiempo Temperatura Precipitaciones Viento Presión Humedad
    00:00 +18°C° 0 mm 1 mps 733 mmHg 92%
    01:00 +18°C° 0 mm 1 mps 733 mmHg 92%
    02:00 +18°C° 0 mm 1 mps 733 mmHg 93%
    03:00 +18°C° 0 mm 1 mps 733 mmHg 92%
    04:00 +18°C° 0 mm 1 mps 733 mmHg 92%
    05:00 +18°C° 0 mm 1 mps 733 mmHg 91%
    06:00 +20°C° 0 mm 1 mps 733 mmHg 84%
    07:00 +22°C° 0 mm 1 mps 734 mmHg 76%
    08:00 +23°C° 0 mm 1 mps 734 mmHg 69%
    09:00 +25°C° 0 mm 2 mps 734 mmHg 63%
    10:00 +26°C° 0 mm 3 mps 734 mmHg 57%
    11:00 +27°C° 0 mm 3 mps 734 mmHg 51%
    12:00 +27°C° 0 mm 3 mps 734 mmHg 51%
    13:00 +27°C° 0 mm 4 mps 734 mmHg 50%
    14:00 +27°C° 0 mm 4 mps 734 mmHg 49%
    15:00 +26°C° 0 mm 4 mps 734 mmHg 53%
    16:00 +25°C° 0 mm 4 mps 733 mmHg 56%
    17:00 +24°C° 0 mm 3 mps 733 mmHg 60%
    18:00 +21°C° 0 mm 3 mps 734 mmHg 68%
    19:00 +19°C° 0 mm 2 mps 734 mmHg 76%
    20:00 +17°C° 0 mm 2 mps 734 mmHg 84%
    21:00 +17°C° 0 mm 2 mps 734 mmHg 86%
    22:00 +16°C° 0 mm 1 mps 734 mmHg 88%
    23:00 +16°C° 0 mm 1 mps 734 mmHg 90%

    27 Junio, Miércoles

    Tiempo Temperatura Precipitaciones Viento Presión Humedad
    00:00 +15°C° 0 mm 1 mps 734 mmHg 90%
    01:00 +15°C° 0 mm 1 mps 734 mmHg 91%
    02:00 +15°C° 0 mm 1 mps 734 mmHg 91%
    03:00 +15°C° 0 mm 1 mps 733 mmHg 90%
    04:00 +15°C° 0 mm 1 mps 733 mmHg 90%
    05:00 +16°C° 0 mm 1 mps 733 mmHg 89%
    06:00 +19°C° 0 mm 1 mps 734 mmHg 80%
    07:00 +21°C° 0 mm 1 mps 734 mmHg 71%
    08:00 +23°C° 0 mm 2 mps 734 mmHg 63%
    09:00 +24°C° 0 mm 2 mps 734 mmHg 58%
    10:00 +25°C° 0 mm 2 mps 734 mmHg 53%
    11:00 +26°C° 0 mm 3 mps 734 mmHg 48%
    12:00 +26°C° 0 mm 3 mps 734 mmHg 49%
    13:00 +26°C° 0 mm 4 mps 733 mmHg 49%
    14:00 +26°C° 0 mm 4 mps 733 mmHg 50%
    15:00 +25°C° 0 mm 4 mps 733 mmHg 54%
    16:00 +24°C° 0 mm 3 mps 733 mmHg 58%
    17:00 +24°C° 0 mm 3 mps 733 mmHg 62%
    18:00 +21°C° 0 mm 3 mps 733 mmHg 69%
    19:00 +19°C° 0 mm 2 mps 733 mmHg 75%
    20:00 +18°C° 0 mm 2 mps 733 mmHg 82%
    21:00 +17°C° 0 mm 2 mps 733 mmHg 84%
    22:00 +17°C° 0 mm 2 mps 733 mmHg 86%
    23:00 +16°C° 0 mm 2 mps 733 mmHg 88%

    28 Junio, Jueves

    Tiempo Temperatura Precipitaciones Viento Presión Humedad
    00:00 +16°C° 0 mm 1 mps 732 mmHg 88%
    01:00 +16°C° 0 mm 1 mps 732 mmHg 87%
    02:00 +18°C° 0 mm 1 mps 731 mmHg 87%
    03:00 +18°C° 0 mm 1 mps 731 mmHg 86%
    04:00 +18°C° 0 mm 1 mps 731 mmHg 86%
    05:00 +18°C° 0 mm 1 mps 731 mmHg 86%
    06:00 +20°C° 0 mm 1 mps 731 mmHg 78%
    07:00 +23°C° 0 mm 1 mps 731 mmHg 69%
    08:00 +25°C° 0 mm 1 mps 731 mmHg 61%
    09:00 +26°C° 0 mm 1 mps 731 mmHg 56%
    10:00 +28°C° 0 mm 2 mps 731 mmHg 51%
    11:00 +30°C° 0 mm 2 mps 730 mmHg 46%
    12:00 +29°C° 0,1 mm 2 mps 730 mmHg 47%
    13:00 +29°C° 0,1 mm 3 mps 730 mmHg 48%
    14:00 +28°C° 0,1 mm 3 mps 729 mmHg 48%
    15:00 +27°C° 0,6 mm 3 mps 729 mmHg 54%
    16:00 +26°C° 0,6 mm 3 mps 729 mmHg 60%
    17:00 +25°C° 0,6 mm 2 mps 729 mmHg 66%
    18:00 +23°C° 0,5 mm 2 mps 729 mmHg 71%
    19:00 +22°C° 0,5 mm 1 mps 729 mmHg 77%
    20:00 +21°C° 0,5 mm 1 mps 729 mmHg 82%
    21:00 +20°C° 0,6 mm 1 mps 729 mmHg 83%
    22:00 +20°C° 0,6 mm 1 mps 729 mmHg 85%
    23:00 +19°C° 0,6 mm 1 mps 729 mmHg 86%

    29 Junio, Viernes

    Tiempo Temperatura Precipitaciones Viento Presión Humedad
    00:00 +19°C° 0,4 mm 1 mps 728 mmHg 87%
    01:00 +19°C° 0,4 mm 1 mps 728 mmHg 88%
    02:00 +19°C° 0,4 mm 1 mps 728 mmHg 88%
    03:00 +19°C° 0,3 mm 1 mps 728 mmHg 89%
    04:00 +19°C° 0,3 mm 1 mps 728 mmHg 89%
    05:00 +19°C° 0,3 mm 1 mps 728 mmHg 89%
    06:00 +20°C° 0,3 mm 1 mps 728 mmHg 82%
    07:00 +22°C° 0,3 mm 1 mps 728 mmHg 76%
    08:00 +24°C° 0,3 mm 2 mps 729 mmHg 69%
    09:00 +25°C° 0,2 mm 2 mps 728 mmHg 63%
    10:00 +26°C° 0,2 mm 2 mps 728 mmHg 56%
    11:00 +28°C° 0,2 mm 3 mps 728 mmHg 50%
    12:00 +27°C° 0,4 mm 3 mps 728 mmHg 51%
    13:00 +27°C° 0,4 mm 3 mps 728 mmHg 52%
    14:00 +27°C° 0,4 mm 3 mps 728 mmHg 53%
    15:00 +26°C° 0,7 mm 3 mps 728 mmHg 57%
    16:00 +25°C° 0,7 mm 2 mps 728 mmHg 61%
    17:00 +24°C° 0,7 mm 2 mps 728 mmHg 65%
    18:00 +21°C° 0,7 mm 2 mps 729 mmHg 72%
    19:00 +21°C° 0,7 mm 1 mps 729 mmHg 79%
    20:00 +19°C° 0,7 mm 1 mps 729 mmHg 86%
    21:00 +19°C° 0,3 mm 1 mps 729 mmHg 87%
    22:00 +18°C° 0,3 mm 1 mps 729 mmHg 89%
    23:00 +18°C° 0,3 mm 1 mps 729 mmHg 90%
    Mostrar más